SCOUT X-1 R/B, 82

Orbit data source: Space-Track

SCOUT X-1 R/B, 82 is space debris in LEO originally from a launch on Thu, 16 Feb 1961 UTC launched from the Wallops Island (WLPIS). Debris objects in space refer to the collection of defunct objects orbiting the Earth. Examples of debris include non-operational satellites, rocket bodies, and fragments generated from explosions, collisions, or faulty payload assembly.

Loading next visibility...
Identifier
82, 1961-004B
Orbit
LEO
Country
Flag of USUS
Related business
Manufacturer
ABL
Mission
Spacecraft
Bus & Motor
ALTAIR, Unknown motor
Mass
53 kg wet, 24 kg dry
Launch date (UTC)
1961-02-16 (65 years ago)
Launch vehicle
Unknown
Launch site
Wallops Island (WLPIS)
Object type
Payload
Rocket body
Debris
Shape & HBR
Cyl, 0.8 m
Radar Cross Section
0.687 m², Medium (>0.1 m² and < 1m²)

Expand to show TLE details & history
Last TLE update: 13 hours ago

TLE from 13 hours ago
0 SCOUT X-1 R/B
1 00082U 61004B   25259.19290388  .00000279  00000-0  26281-3 0  9994
2 00082  38.8591 297.4327 1167951 339.7068  16.0645 12.27721356 43124
Epoch: 2025-09-16T04:37Z
TLE epoch observation values (Epoch: 2025-09-16T04:37:46.895Z)
Latitude
-0.00004°
Longitude
-127.39948°
Altitude
677.731 km
Speed
7.925 km/s
True Right ascension
19h 49m 43s
True Declination
0° 00' 00"
Sunlit
Object was in full shadow at epoch
Visualization orbit readout
Latitude
Unknown
Longitude
Unknown
Altitude
Unknown
Speed
Unknown
Apparent Right ascension
Unknown
Apparent Declination
Unknown
Sunlit
N/A
Visualization observer readout
Local Sidereal Time
10:27:02
Azimuth
Unknown
Elevation
Unknown
Doppler factor
Unknown
Orbital elements
Apogee altitude
2,488.712 km
Perigee altitude
634.112 km
Semi-major axis
7,939.549 km
Eccentricity
0.1168
Inclination
38.8591°
RAAN
297.4327°
Arg. of periapsis
339.7068°
True anomaly
20.36359°
Mean anomaly
16.0645°
Eccentric anomaly
18.14894°
Mean motion
3.06796 °/min
Orbital period
117.34 mins
BSTAR
0.00026281
Loading maneuver chart data...
Computing Atmospheric mass density...
Loading historical data...
Loading historical data...
Loading historical data...
Loading historical data...
Loading historical data...
Loading historical data...
Loading historical data...

Documentation

Showing up to 5 results
|